Погода в Окснарде

США     34°11′32″N   119°10′42″W
темп.,
°C
ветер,
м/с
пор.,
м/с
влажн.,
%
обл.,
%
осадки,
мм/ч
давл.,
гПа
погр.,
м
8 марта, пн
пн801:00+13зюз118571 0.1 1019184
04:00+13юз338385 0.4 1020192
07:00+13з347873 0.3 1021200
10:00+14юз436836 0.3 1022420
13:00+15зюз55520 0.0 1022554
16:00+17з67450 0.0 1021408
19:00+15зсз79537 0.0 1022289
22:00+13з565941 0.0 1023234
9 марта, вт
вт901:00+13з22510 0.0 1022194
04:00+12ссв12460 0.0 1021129
07:00+12всв1144100 0.0 1022172
10:00+13юз334850 0.0 1023462
13:00+14з1214560 0.0 1022709
16:00+13з1315640 0.0 1020817
19:00+12з911740 0.0 1021879
22:00+12з47670 0.0 1022739
10 марта, ср
ср1001:00+11з466966 0.0 1020762
04:00+10сз227283 0.6 1019379
07:00+10сз267299 1.4 1018644
10:00+12зюз776199 1.5 1019908
13:00+12зюз1011600 0.1 10181016
16:00+12з1011620 0.1 10161166
19:00+11з8106226 0.0 10171144
22:00+10з686235 0.1 1018956
11 марта, чт
чт1101:00+10зсз576211 0.1 1017631
04:00+9сз345938 0.1 1016566
07:00+9св225690 0.0 1016402
10:00+11вюв124390 0.0 1017719
13:00+12з545193 0.1 1016625
16:00+13юз124696 0.6 1016503
19:00+13сз774787 0.0 1016422
22:00+11сз575455 0.0 1018378
12 марта, пт
пт1201:00+10с335173 0.0 1018244
04:00+10ссв335163 0.0 1018178
07:00+10всв12500 0.0 1020126
10:00+12ююз22490 0.0 1022359
13:00+12з33570 0.0 1021332
16:00+14зюз57630 0.0 1020418
19:00+14св34620 0.0 1022169
22:00+13ссв22530 0.0 102337